This is the latest recevied weather packets stored in our database for station/object KN6DHD. If no packets are shown the sender has not sent any weather packets the latest 10 day(s).
| Time | Temp. | Humidity | Pressure | Rain* | Wind** | Luminosity | Snow |
|---|---|---|---|---|---|---|---|
| 1777971196 | 11.67° C | 99% | 1015.8 hPa | 0 mm | - | 0 W/m² | - |
| 1777970894 | 11.67° C | 99% | 1015.6 hPa | 0 mm | - | 0 W/m² | - |
| 1777970592 | 11.67° C | 99% | 1015.7 hPa | 0 mm | - | 0 W/m² | - |
| 1777970289 | 11.67° C | 99% | 1016.1 hPa | 0 mm | - | 0 W/m² | - |
| 1777969986 | 11.67° C | 99% | 1016 hPa | 0 mm | - | 0 W/m² | - |
| 1777969682 | 11.67° C | 99% | 1015.9 hPa | 0 mm | - | 0 W/m² | - |
| 1777969379 | 11.67° C | 99% | 1015.8 hPa | 0 mm | - | 0 W/m² | - |
| 1777969075 | 11.67° C | 99% | 1015.8 hPa | 0 mm | - | 0 W/m² | - |
| 1777968772 | 11.67° C | 99% | 1015.8 hPa | 0 mm | - | 0 W/m² | - |
| 1777968469 | 11.67° C | 99% | 1015.8 hPa | 0 mm | - | 0 W/m² | - |
| 1777968165 | 11.67° C | 99% | 1015.6 hPa | 0 mm | - | 0 W/m² | - |
| 1777967860 | 11.67° C | 99% | 1016 hPa | 0 mm | - | 0 W/m² | - |
| 1777967558 | 11.67° C | 99% | 1016 hPa | 0 mm | - | 0 W/m² | - |
| 1777967255 | 11.67° C | 99% | 1016 hPa | 1.27 mm | - | 0 W/m² | - |
| 1777966952 | 11.67° C | 99% | 1016.1 hPa | 0 mm | - | 0 W/m² | - |
| 1777966650 | 11.67° C | 99% | 1016.2 hPa | 0 mm | - | 0 W/m² | - |
| 1777966347 | 11.67° C | 99% | 1016.2 hPa | 0 mm | - | 0 W/m² | - |
| 1777966044 | 11.67° C | 99% | 1016.1 hPa | 0 mm | - | 0 W/m² | - |
| 1777965740 | 11.67° C | 99% | 1015.9 hPa | 0 mm | - | 0 W/m² | - |
| 1777965436 | 11.67° C | 99% | 1016.1 hPa | 1.78 mm | - | 0 W/m² | - |
| 1777965133 | 11.67° C | 99% | 1016 hPa | 3.05 mm | - | 0 W/m² | - |
| 1777964830 | 11.67° C | 99% | 1016 hPa | 1.27 mm | - | 0 W/m² | - |
| 1777964526 | 11.67° C | 99% | 1015.8 hPa | 1.78 mm | - | 0 W/m² | - |
| 1777964223 | 11.67° C | 99% | 1015.7 hPa | 0 mm | - | 0 W/m² | - |
| 1777963920 | 12.22° C | 99% | 1015.9 hPa | 1.27 mm | - | 0 W/m² | - |
* Rain latest hour (hover to see other rain measurements)
** Current wind speed in m/s (hover to see current wind gust speed)